EUS35RD EGJJ-LFBD

Flight info

Callsign EUS35RD
Flight time 0h 57m
Altitude 35000
Route REN DCT NTS DCT CNA
Aircraft B738/M-SDE2E3FGHIRWXY/LB1

Departure

Time 2026-05-05 06:01
Airport Jersey Airport (EGJJ)

Arrival

Time 2026-05-05 06:59
Airport Bordeaux–Mérignac Airport (LFBD)
Time Latitude Longitude Altitude Speed Heading
2026-05-05 05:42 49.20555 -2.19751 274 ft 0 kts 172°
2026-05-05 05:54 49.20578 -2.19756 277 ft 4 kts 176°
2026-05-05 05:54 49.20605 -2.19757 281 ft 4 kts 183°
2026-05-05 05:54 49.20616 -2.19756 278 ft 1 kts 184°
2026-05-05 05:57 49.20615 -2.19756 278 ft 1 kts 184°
2026-05-05 05:57 49.20603 -2.19780 269 ft 5 kts 261°
2026-05-05 05:57 49.20600 -2.19865 292 ft 10 kts 263°
2026-05-05 05:58 49.20549 -2.19928 293 ft 11 kts 194°
2026-05-05 05:58 49.20525 -2.20021 293 ft 11 kts 287°
2026-05-05 05:58 49.20547 -2.20134 294 ft 11 kts 287°
2026-05-05 05:58 49.20569 -2.20245 296 ft 11 kts 287°
2026-05-05 05:59 49.20594 -2.20371 294 ft 14 kts 287°
2026-05-05 05:59 49.20622 -2.20531 297 ft 16 kts 283°
2026-05-05 05:59 49.20629 -2.20646 296 ft 10 kts 281°
2026-05-05 05:59 49.20680 -2.20704 294 ft 9 kts
2026-05-05 06:00 49.20703 -2.20660 293 ft 5 kts 83°
2026-05-05 06:00 49.20704 -2.20656 293 ft 0 kts 79°
2026-05-05 06:00 49.20738 -2.20281 293 ft 79 kts 83°
2026-05-05 06:01 49.20845 -2.19037 333 ft 150 kts 80°
2026-05-05 06:01 49.20999 -2.17390 1119 ft 159 kts 79°
2026-05-05 06:01 49.21157 -2.15698 2120 ft 161 kts 79°
2026-05-05 06:01 49.21010 -2.13898 2684 ft 194 kts 113°
2026-05-05 06:02 49.20047 -2.12218 2973 ft 229 kts 140°
2026-05-05 06:02 49.18609 -2.10927 3385 ft 254 kts 148°
2026-05-05 06:02 49.16992 -2.09619 4050 ft 268 kts 149°
2026-05-05 06:02 49.15351 -2.08328 4761 ft 270 kts 149°
2026-05-05 06:03 49.13573 -2.07347 5013 ft 275 kts 167°
2026-05-05 06:03 49.11621 -2.07002 5010 ft 281 kts 173°
2026-05-05 06:03 49.09701 -2.06761 5027 ft 279 kts 172°
2026-05-05 06:03 49.07771 -2.06472 5011 ft 279 kts 171°
2026-05-05 06:04 49.05851 -2.06144 5001 ft 277 kts 170°
2026-05-05 06:04 49.03948 -2.05802 5009 ft 273 kts 170°
2026-05-05 06:04 49.02038 -2.05616 5056 ft 280 kts 178°
2026-05-05 06:04 49.00066 -2.05711 5775 ft 285 kts 180°
2026-05-05 06:05 48.98090 -2.05864 6891 ft 285 kts 180°
2026-05-05 06:05 48.96103 -2.06014 7936 ft 288 kts 180°
2026-05-05 06:05 48.94095 -2.06158 9009 ft 290 kts 180°
2026-05-05 06:05 48.92068 -2.06291 10054 ft 293 kts 180°
2026-05-05 06:06 48.89977 -2.06424 10620 ft 313 kts 180°
2026-05-05 06:06 48.87710 -2.06561 10915 ft 336 kts 180°
2026-05-05 06:06 48.85345 -2.06702 11642 ft 343 kts 180°
2026-05-05 06:06 48.82952 -2.06845 12556 ft 345 kts 180°
2026-05-05 06:07 48.80545 -2.06987 13518 ft 346 kts 180°
2026-05-05 06:07 48.78126 -2.07126 14329 ft 350 kts 180°
2026-05-05 06:07 48.75678 -2.07266 15098 ft 353 kts 180°
2026-05-05 06:07 48.73211 -2.07406 15862 ft 357 kts 180°
2026-05-05 06:08 48.70716 -2.07548 16618 ft 361 kts 180°
2026-05-05 06:08 48.68195 -2.07691 17412 ft 364 kts 180°
2026-05-05 06:08 48.65649 -2.07835 18206 ft 368 kts 180°
2026-05-05 06:08 48.63081 -2.07980 18900 ft 372 kts 180°
2026-05-05 06:09 48.60479 -2.08041 19618 ft 374 kts 174°
2026-05-05 06:09 48.57903 -2.07475 20341 ft 375 kts 165°
2026-05-05 06:09 48.55426 -2.06261 21042 ft 375 kts 156°
2026-05-05 06:09 48.53023 -2.04690 21705 ft 378 kts 154°
2026-05-05 06:10 48.50618 -2.03056 22353 ft 381 kts 154°
2026-05-05 06:10 48.48195 -2.01403 22973 ft 383 kts 154°
2026-05-05 06:10 48.45753 -1.99750 23572 ft 386 kts 154°
2026-05-05 06:10 48.43325 -1.98120 24084 ft 388 kts 154°
2026-05-05 06:11 48.40852 -1.96473 24638 ft 389 kts 154°
2026-05-05 06:11 48.38371 -1.94830 25208 ft 390 kts 154°
2026-05-05 06:11 48.35881 -1.93187 25726 ft 392 kts 154°
2026-05-05 06:11 48.33381 -1.91539 26220 ft 393 kts 154°
2026-05-05 06:12 48.30870 -1.89887 26704 ft 395 kts 154°
2026-05-05 06:12 48.28354 -1.88234 27267 ft 394 kts 154°
2026-05-05 06:12 48.25859 -1.86597 27981 ft 389 kts 154°
2026-05-05 06:12 48.23389 -1.84978 28789 ft 384 kts 154°
2026-05-05 06:13 48.20954 -1.83382 29517 ft 380 kts 154°
2026-05-05 06:13 48.18532 -1.81796 30139 ft 378 kts 154°
2026-05-05 06:13 48.16126 -1.80222 30602 ft 378 kts 155°
2026-05-05 06:13 48.13718 -1.78647 30968 ft 380 kts 155°
2026-05-05 06:14 48.11292 -1.77063 31354 ft 381 kts 155°
2026-05-05 06:14 48.08863 -1.75490 31798 ft 380 kts 157°
2026-05-05 06:14 48.06368 -1.74277 32204 ft 382 kts 165°
2026-05-05 06:14 48.03736 -1.73636 32582 ft 384 kts 172°
2026-05-05 06:15 48.01070 -1.73258 32927 ft 386 kts 173°
2026-05-05 06:15 47.98366 -1.72895 32901 ft 392 kts 173°
2026-05-05 06:15 47.92965 -1.72169 32899 ft 385 kts 173°
2026-05-05 06:16 47.87641 -1.71426 32917 ft 384 kts 172°
2026-05-05 06:16 47.82335 -1.70669 32906 ft 386 kts 172°
2026-05-05 06:17 47.76941 -1.69897 32907 ft 388 kts 172°
2026-05-05 06:17 47.71591 -1.69133 32896 ft 389 kts 172°
2026-05-05 06:18 47.66230 -1.68370 32890 ft 385 kts 172°
2026-05-05 06:18 47.60874 -1.67608 32903 ft 387 kts 172°
2026-05-05 06:19 47.55495 -1.66844 32893 ft 389 kts 172°
2026-05-05 06:19 47.50125 -1.66084 32889 ft 387 kts 172°
2026-05-05 06:20 47.44763 -1.65326 32900 ft 386 kts 172°
2026-05-05 06:20 47.39408 -1.64570 32904 ft 387 kts 172°
2026-05-05 06:21 47.34053 -1.63817 32903 ft 387 kts 172°
2026-05-05 06:21 47.28712 -1.63066 32910 ft 388 kts 172°
2026-05-05 06:22 47.23327 -1.62311 32913 ft 389 kts 172°
2026-05-05 06:22 47.17952 -1.61386 32904 ft 388 kts 165°
2026-05-05 06:23 47.12932 -1.58578 32908 ft 386 kts 149°
2026-05-05 06:23 47.08331 -1.54479 32907 ft 387 kts 148°
2026-05-05 06:24 47.03748 -1.50330 32909 ft 387 kts 148°
2026-05-05 06:24 46.99187 -1.46237 32909 ft 388 kts 148°
2026-05-05 06:25 46.94574 -1.42129 32910 ft 388 kts 148°
2026-05-05 06:25 46.89957 -1.38036 32904 ft 388 kts 148°
2026-05-05 06:26 46.86110 -1.34634 32911 ft 388 kts 148°
2026-05-05 06:26 46.81493 -1.30558 32912 ft 388 kts 148°
2026-05-05 06:27 46.74591 -1.24481 32909 ft 387 kts 149°
2026-05-05 06:28 46.69977 -1.20428 32912 ft 387 kts 149°
2026-05-05 06:28 46.65363 -1.16383 32911 ft 387 kts 149°
2026-05-05 06:29 46.60765 -1.12361 32898 ft 382 kts 149°
2026-05-05 06:29 46.56238 -1.08409 32912 ft 380 kts 149°
2026-05-05 06:30 46.51692 -1.04448 32570 ft 379 kts 149°
2026-05-05 06:30 46.49442 -1.02491 32206 ft 374 kts 149°
2026-05-05 06:30 46.47229 -1.00567 31871 ft 369 kts 149°
2026-05-05 06:30 46.45032 -0.98660 31484 ft 366 kts 148°
2026-05-05 06:31 46.42887 -0.96799 31129 ft 362 kts 148°
2026-05-05 06:31 46.40705 -0.94909 30758 ft 359 kts 148°
2026-05-05 06:31 46.38601 -0.93087 30407 ft 355 kts 148°
2026-05-05 06:31 46.36488 -0.91258 30054 ft 352 kts 148°
2026-05-05 06:32 46.34394 -0.89449 29645 ft 349 kts 148°
2026-05-05 06:32 46.32298 -0.87638 29278 ft 344 kts 148°
2026-05-05 06:32 46.30262 -0.85881 28912 ft 339 kts 148°
2026-05-05 06:32 46.28242 -0.84141 28537 ft 335 kts 148°
2026-05-05 06:33 46.26255 -0.82429 28175 ft 331 kts 148°
2026-05-05 06:33 46.24311 -0.80755 27825 ft 328 kts 148°
2026-05-05 06:33 46.22359 -0.79077 27451 ft 325 kts 148°
2026-05-05 06:33 46.20400 -0.77393 27102 ft 322 kts 148°
2026-05-05 06:34 46.18506 -0.75767 26748 ft 320 kts 148°
2026-05-05 06:34 46.16602 -0.74133 26395 ft 317 kts 148°
2026-05-05 06:34 46.14686 -0.72491 26063 ft 315 kts 148°
2026-05-05 06:34 46.12827 -0.70899 25722 ft 315 kts 148°
2026-05-05 06:35 46.10921 -0.69268 25383 ft 314 kts 149°
2026-05-05 06:35 46.09053 -0.67670 25058 ft 320 kts 149°
2026-05-05 06:35 46.07103 -0.66003 24715 ft 330 kts 149°
2026-05-05 06:35 46.05116 -0.64306 24351 ft 332 kts 149°
2026-05-05 06:36 46.03132 -0.62615 23995 ft 330 kts 149°
2026-05-05 06:36 46.01163 -0.60937 23629 ft 329 kts 149°
2026-05-05 06:36 45.99199 -0.59265 23234 ft 327 kts 149°
2026-05-05 06:36 45.97245 -0.57603 22833 ft 325 kts 149°
2026-05-05 06:37 45.95306 -0.55954 22482 ft 322 kts 149°
2026-05-05 06:37 45.93379 -0.54318 22123 ft 320 kts 149°
2026-05-05 06:37 45.91477 -0.52704 21786 ft 317 kts 149°
2026-05-05 06:37 45.89584 -0.51098 21428 ft 315 kts 149°
2026-05-05 06:38 45.87703 -0.49504 21092 ft 313 kts 150°
2026-05-05 06:38 45.85833 -0.47921 20744 ft 311 kts 150°
2026-05-05 06:38 45.83974 -0.46348 20422 ft 309 kts 150°
2026-05-05 06:38 45.82125 -0.44785 20091 ft 308 kts 150°
2026-05-05 06:39 45.80284 -0.43230 19756 ft 306 kts 150°
2026-05-05 06:39 45.78452 -0.41683 19422 ft 305 kts 150°
2026-05-05 06:39 45.76621 -0.40139 19105 ft 304 kts 150°
2026-05-05 06:39 45.74800 -0.38604 18781 ft 303 kts 150°
2026-05-05 06:40 45.72983 -0.37073 18455 ft 303 kts 150°
2026-05-05 06:40 45.71173 -0.35549 18106 ft 302 kts 150°
2026-05-05 06:40 45.69361 -0.34025 17739 ft 302 kts 150°
2026-05-05 06:40 45.67554 -0.32508 17387 ft 301 kts 150°
2026-05-05 06:41 45.65687 -0.31183 17026 ft 298 kts 165°
2026-05-05 06:41 45.63657 -0.30718 16743 ft 295 kts 174°
2026-05-05 06:41 45.61648 -0.30408 16410 ft 294 kts 174°
2026-05-05 06:41 45.59619 -0.30102 16085 ft 293 kts 174°
2026-05-05 06:42 45.57598 -0.29789 15767 ft 292 kts 174°
2026-05-05 06:42 45.55584 -0.29466 15434 ft 291 kts 174°
2026-05-05 06:42 45.53575 -0.29140 15124 ft 290 kts 174°
2026-05-05 06:42 45.51572 -0.28812 14806 ft 289 kts 174°
2026-05-05 06:43 45.49574 -0.28482 14489 ft 289 kts 174°
2026-05-05 06:43 45.47578 -0.28153 14173 ft 289 kts 174°
2026-05-05 06:43 45.45579 -0.27826 13938 ft 290 kts 174°
2026-05-05 06:43 45.43565 -0.27497 13698 ft 293 kts 174°
2026-05-05 06:44 45.41531 -0.27166 13434 ft 297 kts 174°
2026-05-05 06:44 45.39475 -0.26832 13167 ft 298 kts 174°
2026-05-05 06:44 45.37413 -0.26498 12902 ft 299 kts 174°
2026-05-05 06:44 45.35341 -0.26162 12650 ft 298 kts 174°
2026-05-05 06:45 45.33300 -0.25830 12372 ft 294 kts 174°
2026-05-05 06:45 45.31953 -0.25611 12158 ft 293 kts 174°
2026-05-05 06:45 45.29249 -0.25173 11718 ft 291 kts 174°
2026-05-05 06:45 45.27244 -0.24848 11389 ft 290 kts 174°
2026-05-05 06:46 45.25247 -0.24524 11076 ft 288 kts 174°
2026-05-05 06:46 45.23259 -0.24202 10756 ft 287 kts 175°
2026-05-05 06:46 45.21278 -0.23882 10437 ft 286 kts 175°
2026-05-05 06:46 45.19303 -0.23562 10135 ft 284 kts 175°
2026-05-05 06:47 45.17370 -0.23650 9947 ft 276 kts 197°
2026-05-05 06:47 45.15673 -0.24847 9449 ft 276 kts 218°
2026-05-05 06:47 45.14273 -0.26778 8925 ft 282 kts 227°
2026-05-05 06:47 45.12941 -0.28756 8706 ft 271 kts 227°
2026-05-05 06:48 45.11657 -0.30636 8568 ft 259 kts 226°
2026-05-05 06:48 45.10420 -0.32429 8452 ft 250 kts 225°
2026-05-05 06:48 45.08971 -0.33713 8268 ft 247 kts 198°
2026-05-05 06:48 45.07296 -0.34173 8059 ft 245 kts 188°
2026-05-05 06:49 45.05606 -0.34411 7806 ft 244 kts 187°
2026-05-05 06:49 45.03917 -0.34617 7550 ft 243 kts 186°
2026-05-05 06:49 45.02235 -0.34826 7298 ft 242 kts 187°
2026-05-05 06:49 45.00558 -0.35043 7057 ft 242 kts 187°
2026-05-05 06:50 44.98887 -0.35267 6800 ft 241 kts 187°
2026-05-05 06:50 44.98344 -0.35341 6719 ft 241 kts 187°
2026-05-05 06:50 44.95547 -0.35727 6281 ft 241 kts 187°
2026-05-05 06:50 44.93878 -0.35961 6007 ft 241 kts 187°
2026-05-05 06:51 44.92215 -0.36196 5747 ft 240 kts 187°
2026-05-05 06:51 44.90556 -0.36430 5489 ft 239 kts 187°
2026-05-05 06:51 44.88903 -0.36665 5246 ft 238 kts 187°
2026-05-05 06:51 44.87257 -0.36898 5009 ft 237 kts 187°
2026-05-05 06:52 44.85660 -0.37123 4906 ft 230 kts 188°
2026-05-05 06:52 44.84099 -0.37556 4648 ft 228 kts 198°
2026-05-05 06:52 44.82585 -0.38215 4422 ft 227 kts 199°
2026-05-05 06:52 44.81088 -0.38877 4207 ft 222 kts 199°
2026-05-05 06:53 44.79631 -0.39507 3959 ft 216 kts 199°
2026-05-05 06:53 44.78213 -0.40112 3719 ft 210 kts 199°
2026-05-05 06:53 44.77020 -0.41151 3462 ft 199 kts 238°
2026-05-05 06:53 44.76742 -0.42934 3289 ft 186 kts 283°
2026-05-05 06:54 44.77132 -0.44669 3128 ft 187 kts 289°
2026-05-05 06:54 44.77575 -0.46381 3019 ft 185 kts 289°
2026-05-05 06:54 44.77980 -0.48106 2998 ft 185 kts 287°
2026-05-05 06:54 44.78349 -0.49830 3002 ft 182 kts 286°
2026-05-05 06:55 44.78700 -0.51513 2883 ft 176 kts 286°
2026-05-05 06:55 44.79040 -0.53156 2662 ft 172 kts 286°
2026-05-05 06:55 44.79370 -0.54751 2441 ft 167 kts 286°
2026-05-05 06:55 44.79687 -0.56280 2205 ft 158 kts 286°
2026-05-05 06:56 44.79983 -0.57705 2021 ft 145 kts 285°
2026-05-05 06:56 44.80261 -0.59044 1826 ft 143 kts 285°
2026-05-05 06:56 44.80541 -0.60388 1627 ft 142 kts 285°
2026-05-05 06:56 44.80819 -0.61726 1422 ft 142 kts 285°
2026-05-05 06:57 44.81094 -0.63051 1235 ft 141 kts 285°
2026-05-05 06:57 44.81367 -0.64362 1030 ft 141 kts 285°
2026-05-05 06:57 44.81645 -0.65694 829 ft 142 kts 284°
2026-05-05 06:57 44.81924 -0.67026 634 ft 140 kts 285°
2026-05-05 06:58 44.82206 -0.68357 449 ft 143 kts 284°
2026-05-05 06:58 44.82481 -0.69698 255 ft 143 kts 284°
2026-05-05 06:58 44.82753 -0.71009 166 ft 125 kts 287°
2026-05-05 06:58 44.82939 -0.71892 172 ft 65 kts 286°
2026-05-05 06:59 44.82992 -0.72115 169 ft 13 kts 308°
2026-05-05 06:59 44.83076 -0.72119 167 ft 13 kts 17°
2026-05-05 06:59 44.83152 -0.72076 167 ft 7 kts 28°
2026-05-05 06:59 44.83166 -0.72028 167 ft 5 kts 97°
2026-05-05 07:00 44.83154 -0.71955 167 ft 10 kts 105°
2026-05-05 07:00 44.83128 -0.71831 167 ft 15 kts 106°
2026-05-05 07:00 44.83096 -0.71677 167 ft 17 kts 106°
2026-05-05 07:00 44.83061 -0.71511 167 ft 18 kts 106°
2026-05-05 07:01 44.83025 -0.71337 167 ft 19 kts 106°
2026-05-05 07:01 44.82990 -0.71165 168 ft 17 kts 107°
2026-05-05 07:01 44.82954 -0.71005 169 ft 17 kts 107°
2026-05-05 07:01 44.82933 -0.70858 169 ft 15 kts 79°
2026-05-05 07:02 44.83008 -0.70763 168 ft 13 kts 38°
2026-05-05 07:02 44.83078 -0.70663 168 ft 15 kts 46°
2026-05-05 07:02 44.83153 -0.70557 167 ft 12 kts 45°
2026-05-05 07:02 44.83158 -0.70535 166 ft 5 kts 92°
2026-05-05 07:03 44.83143 -0.70485 166 ft 5 kts 116°
2026-05-05 07:03 44.83131 -0.70453 166 ft 3 kts 118°
2026-05-05 07:03 44.83127 -0.70441 166 ft 0 kts 118°